sat.trackr.live / text

‹ back to catalog

STARLINK-11194 [DTC]

NORAD 60187 · 2024-124E

PAYLOAD ACTIVE UNKNOWN

§ Identity

Operator
Country
US
Launch date
2024-07-03
Launch site
AFETR
Launch vehicle
Mass (kg)
RCS (m²)

Purposes: comms

External: N2YO · Heavens-Above · Gunter

§ Orbital elements

Epoch: 2026-09-20T05:36:31.730112Z

Period
91.74 min
Inclination
53.1585°
Eccentricity
0.0001221
Mean motion
15.69689056 rev/d
Perigee alt
359.0 km
Apogee alt
360.6 km
Semi-major
6,737.9 km
B*
-1.5715e-5
RAAN
281.9123°
Arg perigee
61.1179°
Mean anomaly
298.9961°
Rev number
12,709

§ Raw data

STARLINK-11194 [DTC]1 60187U 24124E   26263.23370058 -.00002490  00000+0 -15715-4 0  99912 60187  53.1585 281.9123 0001221  61.1179 298.9961 15.69689056127096

JSON: /api/v1/satellites/60187 · /tle

For live sub-satellite position, see the globe view (requires WebGL).

§ Visibility from observer

Set your observer location to see the next 7 days of passes ≥ 10°. The values pass through the URL so the page stays shareable.

No JS? Fill the form by hand. The geolocation button needs JavaScript.